Track COSMOS 2168 now! 10-day predictions COSMOS 2168 is classified as:
1 21782U 91077D 22136.60053122 .00000020 00000-0 52094-4 0 9993 2 21782 82.5958 88.5451 0013405 182.8660 350.4135 12.65475693409253